Mineralnyye Vody Airport

Jump to: basic info | weather | frequencies | runways | comments

Related pages: nearby airports | nearby navaids | notams | map

Basic information (top)

Codes: MRV URMM
Location: lon 44.225101, lat 43.081902, elev 1,054 ft / 321 m msl
Status: medium_airport
Scheduled airline service: yes
Links: Wikipedia Mobile

Weather (top)

Current conditions (rec'd 2015/02/28 22:30Z):

URMM 282230Z 27001MPS 2800 BR BKN002 BKN130 M01/M02 Q1012 R12/CLRD70 NOSIG RMK QBB080 MT OBSC QFE731/0975

Airport forecast (rec'd 2015/02/28 21:00Z):

TAF URMM 281955Z 2821/0121 26003G08MPS 3000 BR OVC007 
      TEMPO 2821/0109 VRB02MPS 0300 FZFG OVC002 
     FM010900 08003G08MPS 9999 OVC010 
      TEMPO 0109/0121 1200 RA BKN004 OVC010

Frequencies (top)

Verify before use: may be inaccurate or out of date.

APP: 119.3 MHz (APP)
ATIS: 127.4 MHz (ATIS)
GND: 121.9 MHz (TAXIING)
RDR: 120.7 MHz (KRUG)
TWR: 128 MHz (START)

Runways (top)

12/30: 12,795 x 197 ft (3,900 x 60 m) — paved — lighted

Latest comments (top)

No comments yet for Mineralnyye Vody Airport

More... (top)

See also NOTAMs and nearby airports and navaids, or visit the Mineralnyye Vody Airport page at the main OurAirports website..